When you browse on this site, cookies collect data to enhance your experience and personalize the content and advertising you see.
Visit our Privacy Policy to learn more. By continuing to use the site, you agree to this use of cookies and data.
  • In Österreich
  • Länderverzeichnis
  • Für 7 Tage
  • Wassertemperatur
  • Satellitenkarten
  • Wetterkarte
  • News
  • Widgets
  • user-avatar
    Anmelden

    Stündliche Wetter Idshewan

    Heute, 27 Juni, Donnerstag

    Zeit Temperatur Niederschläge Wind Luftdruck Luftfeuchtigkeit
    00:00 +23°C° 0.2 mm 2 m/S 694 mmHg 76%
    01:00 +21°C° 0 mm 2 m/S 693 mmHg 77%
    02:00 +21°C° 0 mm 2 m/S 693 mmHg 78%
    03:00 +20°C° 0 mm 2 m/S 693 mmHg 79%
    04:00 +21°C° 0 mm 2 m/S 693 mmHg 80%
    05:00 +22°C° 0 mm 1 m/S 693 mmHg 80%
    06:00 +23°C° 0 mm 1 m/S 693 mmHg 81%
    07:00 +24°C° 0 mm 1 m/S 693 mmHg 76%
    08:00 +26°C° 0 mm 2 m/S 693 mmHg 72%
    09:00 +27°C° 0 mm 2 m/S 693 mmHg 68%
    10:00 +27°C° 0 mm 2 m/S 693 mmHg 67%
    11:00 +28°C° 0 mm 2 m/S 692 mmHg 66%
    12:00 +28°C° 0 mm 1 m/S 692 mmHg 65%
    13:00 +29°C° 0.1 mm 1 m/S 692 mmHg 63%
    14:00 +29°C° 0.1 mm 1 m/S 691 mmHg 62%
    15:00 +30°C° 0.1 mm 1 m/S 691 mmHg 61%
    16:00 +29°C° 0.1 mm 1 m/S 691 mmHg 64%
    17:00 +29°C° 0.1 mm 1 m/S 691 mmHg 67%
    18:00 +28°C° 0.1 mm 2 m/S 691 mmHg 69%
    19:00 +27°C° 0.5 mm 1 m/S 691 mmHg 73%
    20:00 +25°C° 0.5 mm 1 m/S 691 mmHg 77%
    21:00 +23°C° 0.5 mm 1 m/S 691 mmHg 81%
    22:00 +23°C° 0.2 mm 1 m/S 691 mmHg 82%
    23:00 +22°C° 0.2 mm 1 m/S 690 mmHg 82%

    Morgen, 28 Juni, Freitag

    Zeit Temperatur Niederschläge Wind Luftdruck Luftfeuchtigkeit
    00:00 +22°C° 0.2 mm 1 m/S 690 mmHg 82%
    01:00 +22°C° 0 mm 1 m/S 690 mmHg 83%
    02:00 +21°C° 0 mm 1 m/S 690 mmHg 84%
    03:00 +21°C° 0 mm 1 m/S 689 mmHg 85%
    04:00 +21°C° 0 mm 1 m/S 689 mmHg 85%
    05:00 +22°C° 0 mm 1 m/S 689 mmHg 84%
    06:00 +22°C° 0 mm 1 m/S 689 mmHg 84%
    07:00 +24°C° 0 mm 1 m/S 689 mmHg 80%
    08:00 +25°C° 0 mm 1 m/S 689 mmHg 77%
    09:00 +26°C° 0 mm 2 m/S 689 mmHg 74%
    10:00 +26°C° 0.1 mm 2 m/S 688 mmHg 74%
    11:00 +26°C° 0.1 mm 2 m/S 688 mmHg 74%
    12:00 +26°C° 0.1 mm 2 m/S 687 mmHg 74%
    13:00 +27°C° 0.1 mm 2 m/S 687 mmHg 72%
    14:00 +28°C° 0.1 mm 2 m/S 686 mmHg 70%
    15:00 +28°C° 0.1 mm 2 m/S 686 mmHg 69%
    16:00 +28°C° 0.5 mm 1 m/S 686 mmHg 71%
    17:00 +27°C° 0.5 mm 1 m/S 686 mmHg 73%
    18:00 +27°C° 0.5 mm 1 m/S 686 mmHg 75%
    19:00 +26°C° 0.9 mm 1 m/S 686 mmHg 78%
    20:00 +24°C° 0.9 mm 2 m/S 687 mmHg 81%
    21:00 +21°C° 0.9 mm 2 m/S 687 mmHg 84%
    22:00 +21°C° 0.2 mm 2 m/S 687 mmHg 83%
    23:00 +21°C° 0.2 mm 2 m/S 686 mmHg 83%

    übermorgen, 29 Juni, Samstag

    Zeit Temperatur Niederschläge Wind Luftdruck Luftfeuchtigkeit
    00:00 +20°C° 0.2 mm 2 m/S 686 mmHg 82%
    01:00 +21°C° 0.1 mm 1 m/S 686 mmHg 83%
    02:00 +20°C° 0.1 mm 1 m/S 686 mmHg 83%
    03:00 +20°C° 0.1 mm 1 m/S 685 mmHg 83%
    04:00 +20°C° 0.2 mm 1 m/S 685 mmHg 83%
    05:00 +21°C° 0.2 mm 1 m/S 685 mmHg 83%
    06:00 +22°C° 0.2 mm 1 m/S 686 mmHg 83%
    07:00 +23°C° 0.1 mm 1 m/S 686 mmHg 79%
    08:00 +25°C° 0.1 mm 1 m/S 686 mmHg 75%
    09:00 +26°C° 0.1 mm 1 m/S 686 mmHg 72%
    10:00 +26°C° 0.6 mm 1 m/S 685 mmHg 72%
    11:00 +26°C° 0.6 mm 1 m/S 685 mmHg 73%
    12:00 +26°C° 0.6 mm 2 m/S 685 mmHg 73%
    13:00 +26°C° 1.4 mm 2 m/S 685 mmHg 72%
    14:00 +27°C° 1.4 mm 2 m/S 684 mmHg 71%
    15:00 +27°C° 1.4 mm 3 m/S 684 mmHg 70%
    16:00 +26°C° 1 mm 2 m/S 684 mmHg 74%
    17:00 +25°C° 1 mm 2 m/S 684 mmHg 78%
    18:00 +23°C° 1 mm 2 m/S 684 mmHg 83%
    19:00 +21°C° 2.5 mm 2 m/S 685 mmHg 87%
    20:00 +21°C° 2.5 mm 1 m/S 685 mmHg 92%
    21:00 +20°C° 2.5 mm 1 m/S 686 mmHg 96%
    22:00 +20°C° 0.1 mm 1 m/S 686 mmHg 95%
    23:00 +20°C° 0.1 mm 1 m/S 686 mmHg 94%

    30 Juni, Sonntag

    Zeit Temperatur Niederschläge Wind Luftdruck Luftfeuchtigkeit
    00:00 +18°C° 0.1 mm 0 m/S 686 mmHg 93%
    01:00 +17°C° 0.2 mm 0 m/S 686 mmHg 94%
    02:00 +17°C° 0.2 mm 0 m/S 686 mmHg 95%
    03:00 +17°C° 0.2 mm 0 m/S 686 mmHg 96%
    04:00 +17°C° 0.2 mm 0 m/S 686 mmHg 95%
    05:00 +19°C° 0.2 mm 1 m/S 686 mmHg 93%
    06:00 +19°C° 0.2 mm 1 m/S 686 mmHg 91%
    07:00 +20°C° 0 mm 1 m/S 687 mmHg 85%
    08:00 +22°C° 0 mm 1 m/S 687 mmHg 79%
    09:00 +23°C° 0 mm 1 m/S 687 mmHg 73%
    10:00 +23°C° 0.5 mm 1 m/S 687 mmHg 72%
    11:00 +24°C° 0.5 mm 2 m/S 687 mmHg 71%
    12:00 +24°C° 0.5 mm 2 m/S 687 mmHg 71%
    13:00 +24°C° 0.6 mm 2 m/S 686 mmHg 73%
    14:00 +23°C° 0.6 mm 2 m/S 686 mmHg 75%
    15:00 +23°C° 0.6 mm 1 m/S 685 mmHg 77%
    16:00 +21°C° 1.1 mm 2 m/S 685 mmHg 81%
    17:00 +20°C° 1.1 mm 2 m/S 685 mmHg 84%
    18:00 +19°C° 1.1 mm 2 m/S 686 mmHg 88%
    19:00 +18°C° 1.1 mm 2 m/S 686 mmHg 91%
    20:00 +17°C° 1.1 mm 2 m/S 687 mmHg 93%
    21:00 +16°C° 1.1 mm 1 m/S 687 mmHg 96%
    22:00 +15°C° 0.5 mm 1 m/S 687 mmHg 95%
    23:00 +15°C° 0.5 mm 1 m/S 688 mmHg 95%

    1 Juli, Montag

    Zeit Temperatur Niederschläge Wind Luftdruck Luftfeuchtigkeit
    00:00 +15°C° 0.5 mm 1 m/S 688 mmHg 94%
    01:00 +15°C° 0.6 mm 1 m/S 688 mmHg 93%
    02:00 +15°C° 0.6 mm 1 m/S 688 mmHg 93%
    03:00 +14°C° 0.6 mm 1 m/S 688 mmHg 92%
    04:00 +15°C° 0.3 mm 1 m/S 688 mmHg 90%
    05:00 +15°C° 0.3 mm 1 m/S 688 mmHg 89%
    06:00 +15°C° 0.3 mm 1 m/S 689 mmHg 87%
    07:00 +16°C° 0.1 mm 1 m/S 689 mmHg 81%
    08:00 +18°C° 0.1 mm 1 m/S 689 mmHg 75%
    09:00 +20°C° 0.1 mm 1 m/S 689 mmHg 69%
    10:00 +19°C° 0.4 mm 2 m/S 689 mmHg 69%
    11:00 +19°C° 0.4 mm 2 m/S 689 mmHg 69%
    12:00 +20°C° 0.4 mm 2 m/S 689 mmHg 69%
    13:00 +20°C° 1.2 mm 2 m/S 689 mmHg 69%
    14:00 +20°C° 1.2 mm 2 m/S 689 mmHg 68%
    15:00 +20°C° 1.2 mm 2 m/S 689 mmHg 68%
    16:00 +20°C° 0.7 mm 1 m/S 690 mmHg 70%
    17:00 +20°C° 0.7 mm 1 m/S 690 mmHg 71%
    18:00 +20°C° 0.7 mm 1 m/S 690 mmHg 72%
    19:00 +18°C° 0.1 mm 1 m/S 691 mmHg 75%
    20:00 +15°C° 0.1 mm 1 m/S 691 mmHg 78%
    21:00 +14°C° 0.1 mm 1 m/S 691 mmHg 80%
    22:00 +13°C° 0 mm 1 m/S 692 mmHg 80%
    23:00 +13°C° 0 mm 2 m/S 692 mmHg 80%

    2 Juli, Dienstag

    Zeit Temperatur Niederschläge Wind Luftdruck Luftfeuchtigkeit
    00:00 +12°C° 0 mm 2 m/S 692 mmHg 80%
    01:00 +12°C° 0 mm 2 m/S 692 mmHg 78%
    02:00 +11°C° 0 mm 3 m/S 692 mmHg 75%
    03:00 +10°C° 0 mm 3 m/S 693 mmHg 73%
    04:00 +11°C° 0 mm 3 m/S 693 mmHg 73%
    05:00 +12°C° 0 mm 3 m/S 693 mmHg 73%
    06:00 +14°C° 0 mm 2 m/S 694 mmHg 72%
    07:00 +16°C° 0 mm 2 m/S 694 mmHg 66%
    08:00 +18°C° 0 mm 2 m/S 694 mmHg 60%
    09:00 +20°C° 0 mm 2 m/S 695 mmHg 54%
    10:00 +21°C° 0 mm 2 m/S 694 mmHg 54%
    11:00 +23°C° 0 mm 2 m/S 694 mmHg 53%
    12:00 +24°C° 0 mm 2 m/S 694 mmHg 53%
    13:00 +24°C° 0 mm 2 m/S 694 mmHg 54%
    14:00 +24°C° 0 mm 2 m/S 694 mmHg 55%
    15:00 +25°C° 0 mm 2 m/S 693 mmHg 56%
    16:00 +24°C° 0 mm 2 m/S 693 mmHg 60%
    17:00 +24°C° 0 mm 1 m/S 693 mmHg 63%
    18:00 +24°C° 0 mm 1 m/S 693 mmHg 67%
    19:00 +22°C° 0 mm 1 m/S 693 mmHg 71%
    20:00 +20°C° 0 mm 1 m/S 693 mmHg 75%
    21:00 +18°C° 0 mm 1 m/S 693 mmHg 80%
    22:00 +18°C° 0 mm 1 m/S 693 mmHg 80%
    23:00 +18°C° 0 mm 1 m/S 693 mmHg 80%
    Mehr zeigen